Location: *
(44.2000°S, 169.6000°W)
Time: 02:17:47
(UTC+00:00)

Daily predictions for brighter satellites

Satellite Brightness Start Highest point End
(mag) Time Altitude Azimuth Time Altitude Azimuth Time Altitude Azimuth
USA 215 3.8 04:10:15 10° E 04:16:22 42° SSE 04:22:31 10° SW
H-2A R/B 3.7 04:17:45 10° ESE 04:20:02 13° E 04:22:18 10° ENE
Lacrosse 5 3.4 04:19:22 10° SW 04:23:10 20° S 04:26:58 10° SE
CZ-4B R/B 3.9 04:20:15 10° S 04:25:06 62° WSW 04:29:49 10° NNW
ERBS 4.0 04:27:00 10° SSW 04:28:59 15° SSE 04:30:56 10° ESE
CZ-2C R/B 3.4 04:27:44 10° NNW 04:30:19 17° N 04:32:50 10° NE
Cosmos 2360 4.2 04:24:41 10° SSW 04:30:29 78° ESE 04:36:12 10° NNE
Cosmos 1340 Rocket 2.8 04:28:07 10° N 04:32:09 77° E 04:36:17 10° SSE
BREEZE M DEB (TANK) 2.5 04:36:24 10° NW 04:38:20 34° NE 04:40:10 13° E
Meteor 1-31 Rocket 2.9 04:35:52 10° SSE 04:39:49 59° E 04:43:43 10° N
Cosmos 2151 3.3 04:35:50 10° NNE 04:39:59 47° E 04:44:12 10° SSE
USA 308 3.0 04:41:50 10° SW 04:46:02 56° SSE 04:50:11 10° ENE
SL-16 R/B 3.5 04:43:58 10° S 04:48:05 20° SE 04:51:25 12° E
CBERS 1 LM4 rocket 4.4 04:46:52 10° SSE 04:51:42 62° ENE 04:56:36 10° N
COSMOS 2406 3.2 04:46:45 10° NNW 04:52:27 87° ENE 04:58:12 10° SSE
COSMO-SKYMED 1 3.4 04:48:19 10° N 04:52:38 56° W 04:57:00 10° SSW
Landsat 5 3.9 04:50:36 10° NE 04:54:50 44° ESE 04:58:59 10° S
Cosmos 2173 Rocket 4.0 04:53:50 10° S 05:00:18 85° E 05:06:34 10° N
Cosmos 1833 Rocket 3.5 04:54:51 10° NW 05:00:23 52° WSW 05:05:58 10° SSE
Cosmos 1782 2.7 04:57:18 10° S 05:01:20 74° E 05:05:17 10° NNE
Cosmos 2016 Rocket 4.0 04:56:49 10° S 05:03:01 59° ESE 05:09:15 10° NNE
Cosmos 1354 Rocket 4.5 04:59:44 10° S 05:04:41 38° ESE 05:09:35 10° NE
SeaSat 1 4.5 05:02:01 10° S 05:05:53 23° SW 05:09:43 10° W
Cosmos 1992 Rocket 4.0 05:01:00 10° NNW 05:06:15 85° ENE 05:11:34 10° SSE
USA 305 2.8 05:03:08 10° SW 05:07:23 89° SE 05:11:35 10° NE
Cosmos 1486 Rocket 4.0 05:02:52 10° SSW 05:08:17 81° ESE 05:13:40 10° NNE
Cosmos 2233 Rocket 4.4 05:03:14 10° S 05:09:08 40° ESE 05:15:02 10° NE
Cosmos 2360 Rocket 3.8 05:06:21 10° S 05:09:27 15° SE 05:09:27 15° SE
Cosmos 1933 3.8 05:05:54 10° SSW 05:09:59 66° W 05:14:00 10° N
SMAP 3.6 05:06:18 10° SSE 05:10:43 38° E 05:15:05 10° NNE
Cosmos 2278 3.8 05:05:24 10° SSW 05:11:01 54° ESE 05:16:34 10° NE
Cosmos 1939 Rocket 2.7 05:07:10 10° SSE 05:11:07 78° ENE 05:15:00 10° N
Lacrosse 5 rocket 3.0 05:09:11 10° SSW 05:11:47 16° SSE 05:12:32 16° SSE
DMSP B5D1-3 4.5 05:08:24 10° NNE 05:13:34 81° ESE 05:18:49 10° SSW
Cosmos 1864 Rocket 4.4 05:10:41 10° S 05:16:54 70° E 05:23:03 10° NNE
Cosmos 1151 Rocket 3.6 05:13:50 10° S 05:17:57 35° ESE 05:21:59 10° NE
Meteor PRIRODA 3.7 05:16:58 17° SSE 05:19:43 55° E 05:23:22 10° N
Cosmos 1802 Rocket 4.1 05:16:03 10° S 05:22:34 85° W 05:29:02 10° N
BREEZE-M DEB (TANK) 3.6 05:15:34 10° WSW 05:22:41 45° NW 05:25:38 10° NNE
SL-08 R/B 4.4 05:16:34 10° S 05:22:51 70° E 05:28:59 10° NNE
Meteor 2-3 Rocket 4.4 05:17:26 10° NNW 05:22:58 57° WSW 05:28:38 10° S
SL-8 R/B 4.3 05:18:34 10° NNW 05:23:04 41° NE 05:25:03 28° E
Cosmos 1459 Rocket 4.4 05:17:29 10° SSW 05:23:40 68° W 05:29:53 10° N
USA 281 3.5 05:21:17 14° SE 05:26:55 48° ENE 05:33:15 10° N
Orbus 7S? 4.2 05:25:39 10° SW 05:28:30 24° SSE 05:28:30 24° SSE
ATLAS 2AS CENTAUR R/B 4.3 05:22:53 10° SW 05:29:25 39° WNW 05:36:17 10° N
CZ-2D R/B 3.4 05:30:12 34° SE 05:31:29 50° E 05:35:14 10° N
ARGOS 3.7 05:30:54 28° ESE 05:32:40 34° E 05:37:33 10° NNE
Cosmos 1812 3.2 05:29:27 10° SSW 05:33:19 62° W 05:37:06 10° N
CZ-4B R/B 2.6 05:34:48 28° SSE 05:36:43 73° ENE 05:40:37 10° N
Cosmos 1503 Rocket 3.9 05:32:56 10° SSW 05:38:12 87° ESE 05:43:25 10° NNE
SJ 16-02 1.5 05:33:59 10° S 05:38:19 48° ESE 05:39:37 36° ENE
Cosmos 1980 Rocket 2.9 05:36:17 10° SSW 05:41:48 56° WNW 05:47:16 10° N
Meteor 2-6 Rocket 4.0 05:36:22 10° S 05:42:02 81° E 05:47:30 10° NNE
CZ-4C R/B 2.7 05:40:32 10° NNE 05:43:46 88° ESE 05:47:09 10° SSW
H-2A R/B 4.4 05:52:26 12° S 05:52:26 12° S 05:52:52 10° S
USA 306 3.8 05:45:20 10° WSW 05:49:23 45° NW 05:52:10 18° NNE
DELTA 2 R/B (1) 4.1 05:44:16 10° WNW 05:49:42 50° N 05:51:36 35° ENE
Cosmos 2322 Rocket 2.7 05:46:13 10° SSW 05:51:23 38° SE 05:51:23 38° SE
RESURS DK-1 3.7 05:48:41 10° SW 05:52:39 41° WNW 05:56:34 10° N
USA 307 3.7 05:50:37 10° WSW 05:54:42 48° NW 05:56:49 25° NNE
Cosmos 2082 Rocket 3.1 05:49:20 10° NW 05:54:45 46° WSW 05:59:35 13° SSE
Cosmos 1900 4.3 05:50:00 10° SSW 05:54:48 54° SE 05:54:57 54° ESE
USA 215 3.3 05:53:47 17° NE 05:59:02 82° NW 06:05:42 10° SW
H-2A R/B 2.0 05:55:24 12° S 06:00:03 76° WSW 06:04:59 10° NNW
Cosmos 2333 Rocket 4.0 05:58:11 10° S 06:00:00 16° SSE 06:00:00 16° SSE
Cosmos 1766 Rocket 3.4 06:00:11 10° N 06:04:33 85° E 06:04:51 77° SSE
Cosmos 1862 4.3 06:00:45 10° NNW 06:04:36 47° WSW 06:07:13 19° S
ERBS 4.1 06:01:37 10° SW 06:03:04 25° SW 06:03:04 25° SW
IRIDIUM 104 4.2 05:59:44 10° N 06:04:58 77° E 06:09:31 14° S
Okean 3 Rocket 3.6 06:01:21 10° N 06:05:27 66° NE 06:05:27 66° NE
Lacrosse 5 2.6 06:02:28 10° SW 06:06:47 39° SSE 06:06:47 39° SSE
CZ-2C R/B 3.1 06:06:04 10° NW 06:08:37 19° N 06:08:37 19° N
CORIOLIS 4.3 06:05:10 12° S 06:10:19 75° WSW 06:15:47 10° NNW
Cosmos 2219 Rocket 4.3 06:07:58 10° S 06:08:48 13° S 06:08:48 13° S
IRIDIUM 114 4.3 06:08:51 10° N 06:14:07 88° W 06:18:41 14° S
Cosmos 2084 4.3 06:11:02 10° NW 06:15:47 54° SW 06:16:41 47° S
Magion-5 4.4 06:08:23 10° NNW 06:16:39 50° ENE 06:16:49 49° ENE
Radarsat Rocket 4.5 06:11:41 10° SSE 06:19:07 80° ENE 06:27:24 10° NNW
IRIDIUM 103 4.5 06:18:01 10° N 06:23:16 73° W 06:27:48 14° S
SL-16 R/B 2.2 06:27:09 10° SSW 06:32:54 81° WNW 06:33:22 74° NNW
Cosmos 1932 4.4 06:28:28 10° NNW 06:34:46 75° NE 06:34:46 75° NE
GEOS 3 Rocket 4.3 06:38:59 45° NNW 06:38:59 45° NNW 06:42:35 10° NNW
Lacrosse 5 rocket 4.2 06:47:50 10° SW 06:48:05 11° SW 06:48:05 11° SW
Cosmos 2360 Rocket 3.7 06:48:49 10° SSW 06:51:15 26° SSW 06:51:15 26° SSW
ATLAS 5 CENTAUR R/B 4.2 06:56:33 10° NNW 06:59:38 26° N 06:59:38 26° N
USA 281 4.4 07:08:10 25° S 07:11:15 38° SW 07:17:15 10° WNW
SJ 16-02 4.0 07:13:36 10° SW 07:16:27 17° W 07:16:45 17° W
Cosmos 2322 Rocket 4.1 07:30:24 10° SW 07:33:15 26° WSW 07:33:15 26° WSW
